Home   Weather   West Palm Beach   Past weeks
Flag for USA

Past Weather in West Palm Beach, Florida, USA — Yesterday and Last 2 Weeks

Now
79 °F

Passing clouds.


Feels Like: 81 °F
Forecast: 89 / 77 °F
Wind: 10 mph from Southeast

Location: Palm Beach International Airport

Current Time: Oct 15, 2019 at 11:01:52 pm

Latest Report: Oct 15, 2019 at 9:53 pm


Visibility: 10 mi

Pressure: 30.00 "Hg

Humidity: 69%

Dew Point: 68 °F

Location of West Palm BeachLocation

Past Weather in West Palm Beach — Graph

°F

West Palm Beach Temperature Yesterday

Maximum temperature yesterday: 85 °F (at 1:53 pm)
Minimum temperature yesterday: 77 °F (at 7:23 am)
Average temperature yesterday: 81 °F

High & Low Weather Summary for the Past Weeks

 TemperatureHumidityPressure
High88 °F (Oct 4, 1:53 pm)100% (Oct 7, 11:53 pm)30.08 "Hg (Oct 7, 11:53 pm)
Low73 °F (Oct 4, 5:53 am)53% (Oct 1, 2:53 pm)29.79 "Hg (Oct 7, 4:53 pm)
Average81 °F74%29.95 "Hg
* Reported Sep 30 8:53 pm — Oct 15 8:53 pm, West Palm Beach. Weather by CustomWeather, © 2019

Note: Actual official high and low records may vary slightly from our data, if they occured in-between our weather recording intervals... More about our weather records

Advertising

West Palm Beach Weather History for the Previous 24 Hours

Scroll right to see more
 ConditionsComfort  
Time TempWeatherWind HumidityBarometerVisibility
8:53 pm
Tue, Oct 15
80 °FPassing clouds.10 mph67%30.00 "Hg10 mi
7:53 pm80 °FPassing clouds.12 mph67%29.98 "Hg10 mi
6:53 pm80 °FPartly cloudy.10 mph69%29.97 "Hg10 mi
5:53 pm82 °FScattered clouds.10 mph65%29.97 "Hg10 mi
4:53 pm82 °FBroken clouds.12 mph67%29.98 "Hg10 mi
3:53 pm83 °FBroken clouds.10 mph65%29.98 "Hg10 mi
2:53 pm83 °FScattered clouds.10 mph63%29.99 "Hg10 mi
1:53 pm83 °FScattered clouds.6 mph61%30.02 "Hg10 mi
12:53 pm83 °FScattered clouds.6 mph61%30.05 "Hg10 mi
11:53 am83 °FScattered clouds.10 mph59%30.06 "Hg10 mi
10:53 am82 °FBroken clouds.9 mph60%30.07 "Hg10 mi
9:53 am80 °FBroken clouds.12 mph62%30.07 "Hg10 mi
8:53 am79 °FBroken clouds.9 mph65%30.06 "Hg10 mi
7:53 am77 °FBroken clouds.6 mph69%30.05 "Hg10 mi
6:53 am77 °FPartly cloudy.5 mph66%30.05 "Hg10 mi
5:53 am75 °FPassing clouds.3 mph71%30.04 "Hg10 mi
4:53 am75 °FPassing clouds.3 mph69%30.04 "Hg10 mi
3:53 am77 °FPassing clouds.3 mph66%30.04 "Hg10 mi
2:53 am77 °FPassing clouds.5 mph69%30.05 "Hg10 mi
1:53 am77 °FPassing clouds.7 mph71%30.06 "Hg10 mi
12:53 am78 °FPassing clouds.7 mph71%30.07 "Hg10 mi
11:53 pm
Mon, Oct 14
79 °FPassing clouds.9 mph69%30.08 "Hg10 mi
Weather by CustomWeather, © 2019

See weather overview